This is the latest recevied weather packets stored in our database for station/object KE8KMM. If no packets are shown the sender has not sent any weather packets the latest 10 day(s).
| Time | Temp. | Humidity | Pressure | Rain* | Wind** | Luminosity | Snow |
|---|---|---|---|---|---|---|---|
| 1777945911 | 17.78° C | 74% | 1005.1 hPa | 0 mm | - | 0 W/m² | - |
| 1777945608 | 17.78° C | 71% | 1005.1 hPa | 0 mm | - | 0 W/m² | - |
| 1777945305 | 17.78° C | 71% | 1005.2 hPa | 0 mm | - | 0 W/m² | - |
| 1777945002 | 17.22° C | 74% | 1005.3 hPa | 0 mm | - | 0 W/m² | - |
| 1777944699 | 16.67° C | 74% | 1005 hPa | 0 mm | - | 0 W/m² | - |
| 1777944398 | 16.67° C | 73% | 1005 hPa | 0 mm | - | 0 W/m² | - |
| 1777944094 | 17.22° C | 75% | 1005 hPa | 0 mm | - | 0 W/m² | - |
| 1777943790 | 17.22° C | 73% | 1004.8 hPa | 0 mm | - | 0 W/m² | - |
| 1777943487 | 16.67° C | 74% | 1004.8 hPa | 0 mm | - | 0 W/m² | - |
| 1777943182 | 17.22° C | 73% | 1004.9 hPa | 0 mm | - | 0 W/m² | - |
| 1777942879 | 17.78° C | 74% | 1004.7 hPa | 0 mm | - | 0 W/m² | - |
| 1777942575 | 18.33° C | 69% | 1004.9 hPa | 0 mm | - | 0 W/m² | - |
| 1777942273 | 18.89° C | 67% | 1004.9 hPa | 0 mm | - | 0 W/m² | - |
| 1777941970 | 18.89° C | 69% | 1004.7 hPa | 0 mm | - | 0 W/m² | - |
| 1777941667 | 18.89° C | 67% | 1004.9 hPa | 0 mm | - | 0 W/m² | - |
| 1777941364 | 18.89° C | 68% | 1004.8 hPa | 0 mm | - | 0 W/m² | - |
| 1777941061 | 18.89° C | 67% | 1004.7 hPa | 0 mm | - | 0 W/m² | - |
| 1777940756 | 19.44° C | 66% | 1004.5 hPa | 0 mm | - | 2 W/m² | - |
| 1777940455 | 19.44° C | 65% | 1004.9 hPa | 0 mm | - | 3 W/m² | - |
| 1777940152 | 20° C | 64% | 1004.6 hPa | 0 mm | - | 5 W/m² | - |
| 1777939849 | 20° C | 64% | 1004.7 hPa | 0 mm | - | 7 W/m² | - |
| 1777939546 | 20° C | 63% | 1004.5 hPa | 0 mm | - | 10 W/m² | - |
| 1777939244 | 20° C | 63% | 1004.8 hPa | 0 mm | - | 13 W/m² | - |
| 1777938940 | 20° C | 62% | 1004.6 hPa | 0 mm | - | 17 W/m² | - |
| 1777938637 | 20.56° C | 63% | 1004.6 hPa | 0 mm | - | 22 W/m² | - |
* Rain latest hour (hover to see other rain measurements)
** Current wind speed in m/s (hover to see current wind gust speed)